Weather History for Fayetteville, AR

Change the Weather History Date:

Monday, April 8, 2013

  Actual Average Record
Temperature  
Mean Temperature 64 °F 55 °F  
Max Temperature 72 °F 67 °F 87 °F (2011)
Min Temperature 56 °F 42 °F 17 °F (2007)
Degree Days  
Heating Degree Days 1 11  
Month to date heating degree days 102 94  
Since 1 July heating degree days 3818 3923  
Cooling Degree Days 0 1  
Month to date cooling degree days 0 5  
Year to date cooling degree days 1 9  
Growing Degree Days 15 (Base 50)    
Moisture  
Dew Point 57 °F    
Average Humidity 76    
Maximum Humidity 90    
Minimum Humidity 61    
Precipitation  
Precipitation 0.09 in 0.14 in 1.58 in (1997)
Month to date precipitation 0.90 1.09  
Year to date precipitation 11.23 10.69  
Sea Level Pressure  
Sea Level Pressure 29.76 in    
Wind  
Wind Speed 10 mph (SSE)    
Max Wind Speed 22 mph    
Max Gust Speed 29 mph    
Visibility 10 miles    
Events Rain , Thunderstorm    
T = Trace of Precipitation, MM = Missing Value Source: NWS Daily Summary

Daily Weather History Graph

Daily Weather History Graph

Search for Another Location

Airport:

Trip Planner

Search our weather history database for the weather conditions in past years. The results will help you decide how hot, cold, wet, or windy it might be!

Date:

Astronomy

Apr. 08, 2013 Rise Set
Actual Time 6:52 AM CDT 7:44 PM CDT
Civil Twilight 6:26 AM CDT 8:10 PM CDT
Nautical Twilight 5:55 AM CDT 8:41 PM CDT
Astronomical Twilight 5:24 AM CDT 9:13 PM CDT
Moon 5:40 AM CDT (4/8) 6:21 PM CDT (4/8)
Length of Visible Light 13h 44m
Length of Day
12h 51m
Waning Crescent, 3% of the Moon is Illuminated
Apr 8
Waning Crescent
Apr 10
New
Apr 18
First Quarter
Apr 25
Full
May 2
Last Quarter

Hourly Weather History & Observations

Time (CDT) Temp. Dew Point Humidity Pressure Visibility Wind Dir Wind Speed Gust Speed Precip Events Conditions
12:53 AM 62.1 °F 54.0 °F 75% 29.79 in 10.0 mi Calm Calm - N/A   Overcast
1:53 AM 60.1 °F 53.1 °F 78% 29.78 in 10.0 mi East 3.5 mph - N/A   Mostly Cloudy
2:53 AM 59.0 °F 53.1 °F 81% 29.75 in 10.0 mi SE 3.5 mph - N/A   Mostly Cloudy
3:21 AM 62.6 °F 53.6 °F 72% 29.76 in 10.0 mi SSE 6.9 mph - 0.00 in Rain , Thunderstorm Light Thunderstorms and Rain
3:35 AM 60.8 °F 55.4 °F 82% 29.76 in 9.0 mi South 9.2 mph - 0.01 in Rain , Thunderstorm Light Thunderstorms and Rain
3:53 AM 61.0 °F 55.9 °F 83% 29.73 in 10.0 mi South 4.6 mph - 0.01 in   Scattered Clouds
4:07 AM 60.8 °F 55.4 °F 82% 29.76 in 10.0 mi Calm Calm - 0.00 in Rain , Thunderstorm Light Rain
4:53 AM 59.0 °F 57.0 °F 93% 29.74 in 10.0 mi Calm Calm - 0.08 in Thunderstorm Overcast
5:40 AM 60.8 °F 57.2 °F 88% 29.79 in 10.0 mi NE 4.6 mph - N/A   Overcast
5:53 AM 61.0 °F 57.0 °F 87% 29.77 in 10.0 mi SE 5.8 mph - N/A   Overcast
6:53 AM 63.0 °F 55.9 °F 78% 29.79 in 10.0 mi SE 8.1 mph - N/A   Overcast
7:53 AM 61.0 °F 57.0 °F 87% 29.81 in 10.0 mi ESE 10.4 mph - N/A   Overcast
8:53 AM 61.0 °F 57.0 °F 87% 29.81 in 10.0 mi ESE 8.1 mph - N/A   Overcast
9:53 AM 63.0 °F 55.9 °F 78% 29.80 in 10.0 mi SSE 10.4 mph 19.6 mph N/A   Overcast
10:53 AM 64.0 °F 57.0 °F 78% 29.82 in 10.0 mi South 10.4 mph 20.7 mph N/A   Overcast
11:53 AM 66.0 °F 57.9 °F 75% 29.82 in 10.0 mi South 13.8 mph - N/A   Overcast
12:53 PM 64.0 °F 57.9 °F 80% 29.81 in 10.0 mi South 10.4 mph 19.6 mph N/A   Overcast
1:53 PM 64.0 °F 59.0 °F 84% 29.77 in 10.0 mi SSE 9.2 mph 18.4 mph N/A   Overcast
2:53 PM 66.0 °F 59.0 °F 78% 29.75 in 10.0 mi South 12.7 mph - N/A   Overcast
3:53 PM 69.1 °F 59.0 °F 70% 29.73 in 10.0 mi South 11.5 mph 20.7 mph N/A   Overcast
4:53 PM 71.1 °F 59.0 °F 66% 29.72 in 10.0 mi South 16.1 mph 24.2 mph N/A   Mostly Cloudy
5:53 PM 71.1 °F 59.0 °F 66% 29.72 in 10.0 mi SSE 11.5 mph 19.6 mph N/A   Overcast
6:53 PM 70.0 °F 57.9 °F 65% 29.73 in 10.0 mi SSE 9.2 mph 21.9 mph N/A   Overcast
7:53 PM 70.0 °F 57.9 °F 65% 29.74 in 10.0 mi SSE 4.6 mph - N/A   Overcast
8:53 PM 70.0 °F 57.0 °F 63% 29.74 in 10.0 mi SSE 9.2 mph - N/A   Mostly Cloudy
9:53 PM 70.0 °F 57.0 °F 63% 29.73 in 10.0 mi SSE 12.7 mph 20.7 mph N/A   Clear
10:53 PM 70.0 °F 55.9 °F 61% 29.72 in 10.0 mi SSE 11.5 mph 20.7 mph N/A   Clear
11:53 PM 70.0 °F 55.9 °F 61% 29.72 in 10.0 mi SSE 12.7 mph 21.9 mph N/A   Clear